COSMOS 2514 (751)

Last updated on Fri Apr 03 2026 00:03:25 GMT+0000 (Coordinated Universal Time)

1 41330U 16008A 26091.32659271 -.00000037 00000+0 00000+0 0 9998 2 41330 65.0661 315.6458 0009038 202.4041 157.6117 2.13102702 78980
UTC large
Height (km)
Speed (km/s)
/
Latitude / Longitude
Inclination (degrees)
Orbital Period (minutes)
Azimuth
Elevation
Range (km)
Doppler Factor

Next 0 passes for location: London (51.5072 / 0.1276)

Sorry there are no passes over London.